Location: Bartlett
(35.2045°N, 89.8740°W)
Time: 17:01:45
(UTC+00:00)

Transit 4A - Pass Details

Date: 17 December 2025
Orbit: 867 x 974 km, 66.8° (Epoch: 14 January)

Event Time Altitude Azimuth Distance (km) Brightness Sun altitude
Rises 00:27:51 0° 226° (SW) 3,444 11.9 -19.5°
Reaches altitude 10° 00:30:28 10° 233° (SW) 2,505 11.2 -20.0°
Maximum altitude 00:35:51 40° 303° (WNW) 1,254 8.9 -21.1°
Enters shadow 00:40:49 12° 10° (N) 2,355 9.8 -22.1°
Drops below altitude 10° 00:41:19 10° 12° (NNE) 2,525 - -22.2°
Sets 00:43:58 0° 20° (NNE) 3,476 - -22.7°
